Torna al catalogo

STARLINK-34842

AttivoComunicazioniSSO
NORAD 65235·PAYLOAD·🇺🇸 United States

Lanciato Aug 18, 2025 da Vandenberg Space Force Base

Loading…

Prossimi Passaggi (prossime 24 ore)

TLE

AggiornatoSource: CelesTrak SupGP

Epoca: Sep 14, 2026, 21:14 UTC

1 65235C 25179A   26257.88520833 -.00014185  00000+0 -44052-3 0  2579
2 65235  97.2833 297.3137 0001050 104.3192 266.5850 15.33433673    14

Traccia STARLINK-34842 in tempo reale con AllMySat

Download on the App Store